| time (UTC) | temp F | wind direction | speed MPH | gust MPH | rain 1hr in | rain 24hr in | rain mn in | humidity % | barometer mb |
| 20260502163617 | 58 | 23 | 2.0 | 3.0 | 0.00 | 0.00 | 0.00 | 55 | 1021.0 |
| 20260502162617 | 58 | 315 | 1.0 | 3.0 | 0.00 | 0.00 | 0.00 | 52 | 1021.0 |
| 20260502161618 | 58 | 135 | 1.0 | 2.0 | 0.00 | 0.00 | 0.00 | 54 | 1021.0 |
| 20260502160656 | 57 | 0.0 | 0.0 | 0.00 | 0.00 | 0.00 | 55 | 1020.9 | |
| 20260502151818 | 57 | 0 | 3.0 | 5.0 | 0.00 | 0.00 | 0.00 | 58 | 1021.1 |
| 20260502150818 | 56 | 0 | 1.0 | 1.0 | 0.00 | 0.00 | 0.00 | 62 | 1020.9 |
| 20260502123816 | 44 | 0.0 | 0.0 | 0.00 | 0.00 | 0.00 | 79 | 1020.4 | |
| 20260502122836 | 44 | 0.0 | 1.0 | 0.00 | 0.00 | 0.00 | 78 | 1020.1 | |
| 20260502121916 | 43 | 0.0 | 1.0 | 0.00 | 0.00 | 0.00 | 80 | 1020.1 | |
| 20260502120816 | 42 | 0 | 1.0 | 1.0 | 0.00 | 0.00 | 0.00 | 81 | 1019.9 |
| 20260502115816 | 41 | 0.0 | 1.0 | 0.00 | 0.00 | 0.00 | 82 | 1019.6 | |
| 20260502114816 | 40 | 0 | 1.0 | 1.0 | 0.00 | 0.00 | 0.00 | 82 | 1019.4 |
| 20260502113816 | 40 | 0 | 1.0 | 1.0 | 0.00 | 0.00 | 0.00 | 82 | 1019.4 |
| 20260502112816 | 40 | 0 | 1.0 | 1.0 | 0.00 | 0.00 | 0.00 | 82 | 1019.2 |
| 20260502111816 | 39 | 0.0 | 1.0 | 0.00 | 0.00 | 0.00 | 83 | 1019.2 | |
| 20260502110836 | 39 | 0.0 | 0.0 | 0.00 | 0.00 | 0.00 | 83 | 1019.1 | |
| 20260502105916 | 39 | 0.0 | 1.0 | 0.00 | 0.00 | 0.00 | 83 | 1019.2 | |
| 20260502104916 | 40 | 0 | 1.0 | 1.0 | 0.00 | 0.00 | 0.00 | 83 | 1019.1 |
| 20260502103916 | 40 | 0.0 | 0.0 | 0.00 | 0.00 | 0.00 | 83 | 1018.9 | |
| 20260502102916 | 40 | 0.0 | 0.0 | 0.00 | 0.00 | 0.00 | 82 | 1019.0 | |
| 20260502101916 | 40 | 0.0 | 0.0 | 0.00 | 0.00 | 0.00 | 82 | 1018.8 | |
| 20260502100936 | 40 | 0.0 | 0.0 | 0.00 | 0.00 | 0.00 | 81 | 1018.9 | |
| 20260502090916 | 42 | 0 | 1.0 | 1.0 | 0.00 | 0.00 | 0.00 | 76 | 1018.6 |
| 20260502070616 | 41 | 0.0 | 0.0 | 0.00 | 0.00 | 0.00 | 76 | 1018.3 | |
| 20260502065616 | 42 | 0.0 | 0.0 | 0.00 | 0.00 | 0.00 | 73 | 1018.3 | |
| 20260502064616 | 43 | 0.0 | 0.0 | 0.00 | 0.00 | 0.00 | 73 | 1018.4 | |
| 20260502063616 | 44 | 0.0 | 0.0 | 0.00 | 0.00 | 0.00 | 70 | 1018.4 | |
| 20260502062655 | 45 | 0.0 | 0.0 | 0.00 | 0.00 | 0.00 | 69 | 1018.4 | |
| 20260502062117 | 46 | 0.0 | 0.0 | 0.00 | 0.00 | 0.00 | 69 | 1018.5 | |
| 20260502061137 | 47 | 0.0 | 0.0 | 0.00 | 0.00 | 0.00 | 68 | 1018.5 | |
| 20260502060116 | 47 | 0 | 1.0 | 1.0 | 0.00 | 0.00 | 0.00 | 65 | 1018.5 |
| 20260502055117 | 48 | 0 | 1.0 | 2.0 | 0.00 | 0.00 | 0.00 | 65 | 1018.6 |
| 20260502054157 | 48 | 0.0 | 0.0 | 0.00 | 0.00 | 0.00 | 66 | 1018.5 | |
| 20260502053617 | 48 | 0 | 1.0 | 2.0 | 0.00 | 0.00 | 0.00 | 65 | 1018.6 |
| 20260502052617 | 49 | 0 | 1.0 | 1.0 | 0.00 | 0.00 | 0.00 | 65 | 1018.5 |
| 20260502051616 | 49 | 0 | 1.0 | 2.0 | 0.00 | 0.00 | 0.00 | 65 | 1018.5 |
| 20260502050617 | 49 | 0 | 1.0 | 2.0 | 0.00 | 0.00 | 0.00 | 66 | 1018.5 |
| 20260502045617 | 48 | 0 | 2.0 | 3.0 | 0.00 | 0.00 | 0.00 | 68 | 1018.4 |
| 20260502044617 | 48 | 0 | 1.0 | 2.0 | 0.00 | 0.00 | 0.00 | 69 | 1018.4 |
| 20260502043617 | 46 | 0 | 2.0 | 2.0 | 0.00 | 0.00 | 0.00 | 73 | 1018.3 |
| 20260502042637 | 45 | 0.0 | 0.0 | 0.00 | 0.00 | 0.00 | 78 | 1018.1 | |
| 20260502041637 | 46 | 0.0 | 0.0 | 0.00 | 0.00 | 0.00 | 77 | 1018.2 | |
| 20260502040617 | 46 | 0.0 | 0.0 | 0.00 | 0.00 | 0.00 | 78 | 1018.1 | |
| 20260502035617 | 46 | 0.0 | 0.0 | 0.00 | 0.00 | 0.00 | 71 | 1018.0 | |
| 20260502034617 | 47 | 0.0 | 0.0 | 0.00 | 0.00 | 0.00 | 72 | 1018.0 | |
| 20260502033617 | 47 | 0.0 | 0.0 | 0.00 | 0.00 | 0.00 | 72 | 1017.9 | |
| 20260502032701 | 47 | 0.0 | 0.0 | 0.00 | 0.00 | 0.00 | 75 | 1017.8 | |
| 20260502031818 | 46 | 0.0 | 0.0 | 0.00 | 0.00 | 0.00 | 73 | 1017.7 | |
| 20260502030818 | 47 | 0.0 | 0.0 | 0.00 | 0.00 | 0.00 | 70 | 1017.7 | |
| 20260502025837 | 48 | 0.0 | 0.0 | 0.00 | 0.00 | 0.00 | 70 | 1017.6 | |
| 20260502024818 | 49 | 0.0 | 0.0 | 0.00 | 0.00 | 0.00 | 67 | 1017.5 | |
| 20260502023916 | 50 | 0.0 | 0.0 | 0.00 | 0.00 | 0.00 | 63 | 1017.4 | |
| 20260502023800 | 51 | 0.0 | 0.0 | 0.00 | 0.00 | 0.00 | 63 | 1017.4 | |
| 20260502022718 | 52 | 0.0 | 0.0 | 0.00 | 0.00 | 0.00 | 62 | 1017.2 | |
| 20260502021718 | 54 | 0.0 | 0.0 | 0.00 | 0.00 | 0.00 | 60 | 1017.1 | |
| 20260502020717 | 55 | 23 | 1.0 | 1.0 | 0.00 | 0.00 | 0.00 | 57 | 1017.0 |
| 20260502015717 | 55 | 23 | 1.0 | 2.0 | 0.00 | 0.00 | 0.00 | 57 | 1016.8 |
| 20260502014716 | 56 | 0 | 1.0 | 1.0 | 0.00 | 0.00 | 0.00 | 55 | 1016.6 |
| 20260502014559 | 56 | 0.0 | 0.0 | 0.00 | 0.00 | 0.00 | 54 | 1016.6 | |
| 20260502014318 | 56 | 23 | 2.0 | 2.0 | 0.00 | 0.00 | 0.00 | 54 | 1016.6 |
| 20260502013317 | 56 | 45 | 2.0 | 3.0 | 0.00 | 0.00 | 0.00 | 58 | 1016.3 |
| 20260502012318 | 56 | 23 | 2.0 | 2.0 | 0.00 | 0.00 | 0.00 | 55 | 1016.1 |
| 20260502011318 | 57 | 23 | 1.0 | 2.0 | 0.00 | 0.00 | 0.00 | 54 | 1016.1 |
| 20260502010317 | 58 | 23 | 1.0 | 2.0 | 0.00 | 0.00 | 0.00 | 51 | 1015.9 |
| 20260502005337 | 59 | 0 | 1.0 | 2.0 | 0.00 | 0.00 | 0.00 | 49 | 1015.7 |
| 20260502004338 | 60 | 23 | 2.0 | 3.0 | 0.00 | 0.00 | 0.00 | 49 | 1015.5 |
| 20260502003317 | 61 | 0.0 | 1.0 | 0.00 | 0.00 | 0.00 | 48 | 1015.4 | |
| 20260502002318 | 61 | 23 | 3.0 | 4.0 | 0.00 | 0.00 | 0.00 | 46 | 1015.0 |
| 20260502001318 | 62 | 0 | 3.0 | 4.0 | 0.00 | 0.00 | 0.00 | 43 | 1015.0 |
| 20260502000318 | 62 | 0.0 | 1.0 | 0.00 | 0.00 | 0.00 | 46 | 1014.9 | |
| 20260501235318 | 62 | 23 | 1.0 | 2.0 | 0.00 | 0.00 | 0.00 | 47 | 1014.9 |
| 20260501234316 | 62 | 23 | 4.0 | 6.0 | 0.00 | 0.00 | 0.00 | 47 | 1014.8 |
| 20260501233316 | 61 | 0 | 3.0 | 4.0 | 0.00 | 0.00 | 0.00 | 42 | 1014.7 |
| 20260501232336 | 62 | 0 | 2.0 | 3.0 | 0.00 | 0.00 | 0.00 | 45 | 1014.7 |
| 20260501231336 | 62 | 338 | 1.0 | 2.0 | 0.00 | 0.00 | 0.00 | 45 | 1014.6 |
| 20260501230336 | 63 | 0 | 1.0 | 2.0 | 0.00 | 0.00 | 0.00 | 44 | 1014.8 |
| 20260501225356 | 65 | 23 | 2.0 | 5.0 | 0.00 | 0.00 | 0.00 | 43 | 1014.9 |
| 20260501224316 | 64 | 315 | 4.0 | 9.0 | 0.00 | 0.00 | 0.00 | 44 | 1014.8 |
| 20260501223316 | 63 | 315 | 2.0 | 3.0 | 0.00 | 0.00 | 0.00 | 49 | 1015.0 |
| 20260501222316 | 63 | 315 | 3.0 | 4.0 | 0.00 | 0.00 | 0.00 | 43 | 1014.9 |
| 20260501221316 | 64 | 293 | 3.0 | 6.0 | 0.00 | 0.00 | 0.00 | 45 | 1015.0 |
| 20260501220316 | 65 | 293 | 2.0 | 3.0 | 0.00 | 0.00 | 0.00 | 46 | 1015.2 |
| 20260501215336 | 63 | 315 | 3.0 | 6.0 | 0.00 | 0.00 | 0.00 | 45 | 1015.3 |
| 20260501214316 | 62 | 293 | 3.0 | 4.0 | 0.00 | 0.00 | 0.00 | 51 | 1015.3 |
| 20260501213316 | 62 | 293 | 3.0 | 5.0 | 0.00 | 0.00 | 0.00 | 45 | 1015.5 |
| 20260501212316 | 63 | 0 | 4.0 | 9.0 | 0.00 | 0.00 | 0.00 | 48 | 1015.6 |
| 20260501211316 | 63 | 315 | 1.0 | 3.0 | 0.00 | 0.00 | 0.00 | 52 | 1015.9 |
| 20260501210316 | 62 | 0 | 1.0 | 2.0 | 0.00 | 0.00 | 0.00 | 49 | 1016.0 |
| 20260501205316 | 63 | 315 | 1.0 | 2.0 | 0.00 | 0.00 | 0.00 | 52 | 1016.2 |
| 20260501204316 | 63 | 315 | 1.0 | 2.0 | 0.00 | 0.00 | 0.00 | 49 | 1016.3 |
| 20260501203336 | 63 | 0.0 | 0.0 | 0.00 | 0.00 | 0.00 | 45 | 1016.4 | |
| 20260501202816 | 63 | 315 | 3.0 | 5.0 | 0.00 | 0.00 | 0.00 | 47 | 1016.6 |
| 20260501201816 | 64 | 315 | 5.0 | 8.0 | 0.00 | 0.00 | 0.00 | 43 | 1016.7 |
| 20260501200836 | 64 | 293 | 4.0 | 6.0 | 0.00 | 0.00 | 0.00 | 41 | 1016.8 |
| 20260501195816 | 63 | 293 | 4.0 | 8.0 | 0.00 | 0.00 | 0.00 | 40 | 1016.9 |
| 20260501194816 | 63 | 270 | 5.0 | 10.0 | 0.00 | 0.00 | 0.00 | 43 | 1017.1 |
| 20260501193816 | 63 | 23 | 2.0 | 4.0 | 0.00 | 0.00 | 0.00 | 51 | 1017.2 |
| 20260501192841 | 63 | 0.0 | 0.0 | 0.00 | 0.00 | 0.00 | 44 | 1017.1 | |
| 20260501191916 | 63 | 270 | 6.0 | 11.0 | 0.00 | 0.00 | 0.00 | 41 | 1017.3 |
| 20260501190916 | 63 | 293 | 2.0 | 3.0 | 0.00 | 0.00 | 0.00 | 45 | 1017.3 |
| 20260501185916 | 63 | 225 | 3.0 | 5.0 | 0.00 | 0.00 | 0.00 | 43 | 1017.3 |
| 20260501184916 | 63 | 293 | 2.0 | 4.0 | 0.00 | 0.00 | 0.00 | 40 | 1017.2 |
| 20260501183916 | 63 | 248 | 5.0 | 7.0 | 0.00 | 0.00 | 0.00 | 45 | 1017.4 |
| 20260501182936 | 62 | 270 | 2.0 | 4.0 | 0.00 | 0.00 | 0.00 | 44 | 1017.5 |
| 20260501182056 | 63 | 270 | 5.0 | 12.0 | 0.00 | 0.00 | 0.00 | 43 | 1017.5 |
| 20260501180916 | 63 | 293 | 6.0 | 8.0 | 0.00 | 0.00 | 0.00 | 41 | 1017.7 |
| 20260501175916 | 62 | 248 | 3.0 | 5.0 | 0.00 | 0.00 | 0.00 | 45 | 1017.7 |